FREGAT DEB, 45971

Orbit data source: Space-Track

FREGAT DEB, 45971 is space debris in LEO originally from a launch on Mon, 18 Jul 2011 UTC launched from the Tyuratam Missile And Space Complex (TTMTR). Debris objects in space refer to the collection of defunct objects orbiting the Earth. Examples of debris include non-operational satellites, rocket bodies, and fragments generated from explosions, collisions, or faulty payload assembly.

Loading next visibility...
Identifier
45971, 2011-037GC
Orbit
LEO
Country
Flag of CISCIS
Related business
Manufacturer
Lavochkin
Mission
Spacecraft
Bus & Motor
Unknown
Mass
Unknown
Launch date (UTC)
2011-07-18 (14 years ago)
Launch vehicle
Unknown
Launch site
Tyuratam Missile And Space Complex (TTMTR)
Object type
Payload
Rocket body
Debris
Shape & HBR
Unknown shape, 0.1 m
Radar Cross Section
Small (<0.1 m²)

Expand to show TLE details & history
Last TLE update: 8 hours ago

TLE from 8 hours ago
0 FREGAT DEB
1 45971U 11037GC  25308.57968167  .00018896  00000-0  18223-2 0  9995
2 45971  51.4632  47.8075 1169662 330.2841  23.6237 12.94800168239480
Epoch: 2025-11-04T13:54Z
TLE epoch observation values (Epoch: 2025-11-04T13:54:44.496Z)
Latitude
-0.00001°
Longitude
155.05742°
Altitude
482.247 km
Speed
8.014 km/s
True Right ascension
03h 11m 13s
True Declination
0° 00' 00"
Sunlit
Object was in full shadow at epoch
Visualization orbit readout
Latitude
Unknown
Longitude
Unknown
Altitude
Unknown
Speed
Unknown
Apparent Right ascension
Unknown
Apparent Declination
Unknown
Sunlit
N/A
Visualization observer readout
Local Sidereal Time
17:42:43
Azimuth
Unknown
Elevation
Unknown
Doppler factor
Unknown
Orbital elements
Apogee altitude
2,179.115 km
Perigee altitude
386.923 km
Semi-major axis
7,661.156 km
Eccentricity
0.11697
Inclination
51.4632°
RAAN
47.8075°
Arg. of periapsis
330.2841°
True anomaly
29.80727°
Mean anomaly
23.6237°
Eccentric anomaly
26.62729°
Mean motion
3.23669 °/min
Orbital period
111.22 mins
BSTAR
0.0018223
Loading maneuver chart data...
Computing Atmospheric mass density...
Loading historical data...
Loading historical data...
Loading historical data...
Loading historical data...
Loading historical data...
Loading historical data...
Loading historical data...

Documentation

Showing up to 5 results
|